STARLINK-32126, 60295

Orbit data source: Space-Track

STARLINK-32126, 60295 is a payload satellite owned by SpaceX/Seattle (US) in LEO that was launched on Sun, 28 Jul 2024 UTC via an FALCON 9 launch vehicle from the Air Force Eastern Test Range (AFETR). Payload-class satellites include a variety of spacecraft equipped with specific instruments for various scientific and technological missions. These include communications satellites like Starlink; space stations such as the ISS; scientific satellites like the Hubble; Earth observation satellites from companies like Planet Labs, Umbra, and HawkEye 360; GPS; miniature CubeSats for education and research; and military/defense satellites.

Loading next visibility...
Identifier
60295, 2024-132T
Orbit
LEO
Country
Flag of USUS
Related business
Manufacturer
SpaceX/Seattle
Mission
Operational Commercial Communications
Bus & Motor
STARLINK V2M, Unknown motor
Mass
730 kg wet, ~700 kg dry
Launch date (UTC)
2024-07-28 (1 year ago)
Launch vehicle
FALCON 9
Launch site
Air Force Eastern Test Range (AFETR)
Object type
Payload
Rocket body
Debris
Shape & HBR
Box + 2 Pan, 17.7 m
Radar Cross Section
33.884 m², Large (>1 m²)

Expand to show TLE details & history
Last TLE update: 12 hours ago

TLE from 12 hours ago
0 STARLINK-32126
1 60295U 24132T   25288.93900286  .00003590  00000-0  13339-3 0  9995
2 60295  53.1609   5.1183 0001302 113.3149 246.7989 15.30175332 69396
Epoch: 2025-10-15T22:32Z
TLE epoch observation values (Epoch: 2025-10-15T22:32:09.847Z)
Latitude
0.00001°
Longitude
2.37139°
Altitude
476.54 km
Speed
7.629 km/s
True Right ascension
00h 20m 28s
True Declination
0° 00' 00"
Sunlit
Object was in full shadow at epoch
Visualization orbit readout
Latitude
Unknown
Longitude
Unknown
Altitude
Unknown
Speed
Unknown
Apparent Right ascension
Unknown
Apparent Declination
Unknown
Sunlit
N/A
Visualization observer readout
Local Sidereal Time
05:39:24
Azimuth
Unknown
Elevation
Unknown
Doppler factor
Unknown
Orbital elements
Apogee altitude
476.437 km
Perigee altitude
474.653 km
Semi-major axis
6,853.682 km
Eccentricity
0.00013
Inclination
53.1609°
RAAN
5.1183°
Arg. of periapsis
113.3149°
True anomaly
246.78519°
Mean anomaly
246.7989°
Eccentric anomaly
246.79204°
Mean motion
3.82523 °/min
Orbital period
94.11 mins
BSTAR
0.00013339
Loading maneuver chart data...
Computing Atmospheric mass density...
Loading historical data...
Loading historical data...
Loading historical data...
Loading historical data...
Loading historical data...
Loading historical data...
Loading historical data...

Documentation

Showing up to 5 results
|